Tracking 19709 objects as of 17-Jun-2019
HD Live streaming from Space Station
objects crossing your sky now

DELTA 1 DEB

Track DELTA 1 DEB now!
10-day predictions


NORAD ID: 7030
Int'l Code: 1973-086W
Perigee: 1,509.4 km
Apogee: 1,655.9 km
Inclination: 102.2 °
Period: 117.7 minutes
Semi major axis: 7953 km
RCS: 0.058 m2 (small)
Launch date: November 6, 1973
Source: United States (US)
Launch site: AIR FORCE WESTERN TEST RANGE (AFWTR)

Note: This is SATELLITE DEBRIS
aabbcc
Your satellite tracking list
Your tracking list is empty




NASA's NSSDC Master Catalog

Two Line Element Set (TLE):
1  7030U 73086W   19167.18812156 -.00000079  00000-0 -33064-3 0  9997
2  7030 102.1646 233.5653 0092080 116.6281 310.6380 12.23918641 37023
Source of the keplerian elements: AFSPC